Regional Weather Roundup
Issued by NWS

Home | Current Version | Previous Version | Text Only | Print | Product List | Glossary Off
Versions: 1 2 3 4 5 6 7 8 9 10 11 12 13 14 15 16 17 18 19 20 21 22 23 24 25 26 27 28 29 30 31 32 33 34 35 36 37 38 39 40 41 42 43 44 45 46 47 48 49 50

000
ASUS44 KMEG 300510
RWRTN
TENNESSEE HOURLY STATE WEATHER ROUNDUP
NATIONAL WEATHER SERVICE MEMPHIS TN
1200 AM CDT WED JUL 30 2014

TNZ002-004-019-021-049-052-054-088>092-300600-
WEST TENNESSEE

CITY           SKY/WX    TMP DP  RH WIND       PRES   REMARKS
MEMPHIS INTL   CLEAR     66  56  70 CALM      30.11S
NWS MEMPHIS      N/A     62 N/A N/A MISG        N/A
JACKSON        CLEAR     58  55  90 CALM      30.11R
DYERSBURG      CLEAR     61  50  67 CALM      30.12S
UNION CITY     CLEAR     59  57  94 CALM      30.10S
PARIS          CLEAR     53  52  97 CALM      30.12R
LEXINGTON      CLEAR     57  55  94 CALM      30.10S
SAVANNAH       CLEAR     56  56 100 CALM      30.11S
$$

TNZ008-025-027-028-033-062-065-066-300600-
NORTH MIDDLE TENNESSEE

CITY           SKY/WX    TMP DP  RH WIND       PRES   REMARKS
NASHVILLE      CLEAR     64  55  72 CALM      30.10S
DICKSON        CLEAR     61  54  77 CALM      30.11R
PORTLAND       CLEAR     57  55  94 CALM      30.10S
CLARKSVILLE    CLEAR     62  55  77 CALM      30.10S
LEBANON        CLEAR     60  55  83 CALM      30.09R
SMYRNA         CLEAR     60  57  89 CALM      30.11R
MURFREESBORO   CLEAR     63  58  83 CALM      30.10R
COOKEVILLE     CLEAR     55  55 100 CALM      30.11R
CROSSVILLE     CLEAR     57  53  86 CALM      30.13S
$$

TNZ061-075-076-078-094-096-097-300600-
SOUTH MIDDLE TENNESSEE

CITY           SKY/WX    TMP DP  RH WIND       PRES   REMARKS
LEWISBURG      CLEAR     57  54  90 CALM      30.10R
FAYETTEVILLE   CLEAR     61  54  77 N9G20     30.10S
TULLAHOMA      CLEAR     57  54  88 CALM      30.11S
WINCHESTER     CLEAR     57  55  94 CALM      30.11S
MCMINNVILLE    CLEAR     57  57 100 CALM      30.11S
COLUMBIA       CLEAR     61  57  88 CALM      30.09S
SHELBYVILLE    CLEAR     57  57 100 CALM      30.11S
$$

TNZ017-018-042-046-047-300600-
NORTHEAST TENNESSEE

CITY           SKY/WX    TMP DP  RH WIND       PRES   REMARKS
TRI CITIES     PTCLDY    55  50  83 CALM      30.11S
ELIZABETHTON   CLEAR     52  50  93 CALM        N/A
$$

TNZ012-013-036-069-073-074-300600-
CENTRAL EAST TENNESSEE

CITY           SKY/WX    TMP DP  RH WIND       PRES   REMARKS
KNOXVILLE      CLEAR     59  55  87 N5        30.08S
OAK RIDGE      CLEAR     59  55  87 CALM      30.11S
GATLINBURG     CLEAR     57  54  88 CALM      30.09F
MORRISTOWN     CLEAR     57  55  94 CALM      30.11S
$$

TNZ083-085-099-300600-
SOUTHEAST TENNESSEE

CITY           SKY/WX    TMP DP  RH WIND       PRES   REMARKS
CHATTANOOGA    CLEAR     64  55  72 NW3       30.09S
$$

SKY/WX REPORTED AS FAIR MEANS FEW OR NO CLOUDS BELOW
12 THOUSAND FEET.




USA.gov is the U.S. government's official web portal to all federal, state and local government web resources and services.